Regional Weather Roundup
Issued by NWS Goodland, KS

Home | Current Version | Previous Version | Text Only | Print | Product List | Glossary Off
Versions: 1 2 3 4 5 6 7 8 9 10 11 12 13 14 15 16 17 18 19 20 21 22 23 24 25 26 27 28 29 30 31 32 33 34 35 36 37 38 39 40 41 42 43 44 45 46 47 48 49 50

000
ASUS43 KGLD 081908
RWRGLD

GOODLAND FORECAST AREA HOURLY WEATHER ROUNDUP
NATIONAL WEATHER SERVICE GOODLAND KS
1200 PM MST MON FEB 08 2016

...OFFICIAL OBSERVATIONS...

CITY           SKY/WX    TMP DP  RH WIND       PRES   REMARKS
GOODLAND KS    CLOUDY    36  16  44 NW26G32   30.34F
HILL CITY KS   CLOUDY    36  17  46 NW28G37   30.32F
IMPERIAL NEB   CLOUDY    35  16  45 NW17      30.34F
MCCOOK NEB     CLOUDY    35  17  47 NW25G32   30.32F
AKRON CO       MOSUNNY   31  20  63 NW15      30.35F
BURLINGTON CO  CLOUDY    34  16  47 N18G25    30.35F
LIMON CO       SUNNY     34  22  61 NW7       30.37F
$$

...UNOFFICIAL OBSERVATIONS...

CITY           SKY/WX    TMP DP  RH WIND       PRES   REMARKS
COLBY KS       SUNNY     36  21  55 NW22      30.33F
GOVE KS          N/A     37  32  82 MISG        N/A
LENORA KS        N/A     33  32  96 MISG        N/A
NORTON KS      SUNNY     36  18  48 NW25G31   30.29
KIT CARSON CO    N/A     36  21  53 MISG        N/A
YUMA CO          N/A     35  24  63 N15G22      N/A
$$



USA.gov is the U.S. government's official web portal to all federal, state and local government web resources and services.